FW9081 Weather Reports


time (UTC)temp
C
wind
direction
speed
KPH
gust
KPH
rain 1hr
cm
rain 24hr
cm
rain mn
cm
humidity
%
barometer
mb
20260506094439 25 180 8.0 16.1 0.00 0.00 0.00 42 1012.6
20260506093938 25 178 11.3 16.1 0.00 0.00 0.00 43 1012.6
20260506093439 25 187 11.3 14.5 0.00 0.00 0.00 43 1012.4
20260506092937 25 184 9.7 14.5 0.00 0.00 0.00 43 1012.5
20260506092440 25 181 9.7 14.5 0.00 0.00 0.00 43 1012.6
20260506091937 24 181 9.7 14.5 0.00 0.00 0.00 43 1012.8
20260506091438 24 180 9.7 17.7 0.00 0.00 0.00 43 1012.9
20260506090937 24 180 11.3 17.7 0.00 0.00 0.00 42 1012.7
20260506090438 24 181 9.7 16.1 0.00 0.00 0.00 44 1013.0
20260506085938 24 182 9.7 16.1 0.00 0.00 0.00 44 1012.7
20260506085439 24 181 9.7 16.1 0.00 0.00 0.00 46 1013.0
20260506084939 23 182 11.3 17.7 0.00 0.00 0.00 44 1012.9
20260506084440 23 184 8.0 17.7 0.00 0.00 0.00 44 1012.9
20260506083937 23 183 11.3 17.7 0.00 0.00 0.00 45 1012.9
20260506083438 23 178 11.3 19.3 0.00 0.00 0.00 44 1012.9
20260506082937 23 180 9.7 19.3 0.00 0.00 0.00 46 1012.9
20260506082438 23 182 11.3 14.5 0.00 0.00 0.00 47 1013.0
20260506081938 23 182 11.3 17.7 0.00 0.00 0.00 46 1012.7
20260506081438 23 179 11.3 17.7 0.00 0.00 0.00 46 1012.7
20260506080937 23 179 11.3 16.1 0.00 0.00 0.00 46 1012.7
20260506080440 23 176 8.0 17.7 0.00 0.00 0.00 46 1012.8
20260506073439 22 183 12.9 16.1 0.00 0.00 0.00 50 1013.0
20260506072938 22 183 12.9 16.1 0.00 0.00 0.00 50 1013.3
20260506072440 21 185 12.9 19.3 0.00 0.00 0.00 52 1013.3
20260506071937 21 177 11.3 19.3 0.00 0.00 0.00 54 1013.2
20260506071439 21 185 11.3 17.7 0.00 0.00 0.00 54 1013.1
20260506070937 20 183 12.9 17.7 0.00 0.00 0.00 54 1013.0
20260506070438 20 184 12.9 17.7 0.00 0.00 0.00 56 1013.3
20260506062441 17 183 11.3 12.9 0.00 0.00 0.00 64 1013.4
20260506061938 17 183 11.3 12.9 0.00 0.00 0.00 65 1013.3
20260506061437 17 182 11.3 12.9 0.00 0.00 0.00 67 1013.4
20260506060938 16 182 11.3 12.9 0.00 0.00 0.00 68 1013.4
20260506060436 16 185 11.3 12.9 0.00 0.00 0.00 69 1013.2
20260506050938 15 186 11.3 12.9 0.00 0.00 0.00 73 1013.1
20260506050439 15 185 11.3 12.9 0.00 0.00 0.00 73 1013.3
20260506044939 15 183 11.3 12.9 0.00 0.00 0.00 74 1013.2
20260506044437 14 184 11.3 12.9 0.00 0.00 0.00 74 1013.1
20260506043939 14 183 11.3 12.9 0.00 0.00 0.00 75 1013.2
20260506043438 14 185 11.3 12.9 0.00 0.00 0.00 75 1013.1
20260506042938 14 184 11.3 12.9 0.00 0.00 0.00 75 1013.1
20260506042439 14 185 11.3 12.9 0.00 0.00 0.00 76 1013.0
20260506041938 14 185 11.3 12.9 0.00 0.00 0.00 75 1012.9
20260506041437 13 185 11.3 12.9 0.00 0.00 0.00 75 1012.9
20260506040938 13 185 11.3 12.9 0.00 0.00 0.00 76 1012.9
20260506040437 13 184 11.3 12.9 0.00 0.00 0.00 76 1013.1
20260506035939 13 186 11.3 12.9 0.00 0.00 0.00 76 1012.8
20260506035438 13 183 11.3 12.9 0.00 0.00 0.00 76 1012.8
20260506034939 13 185 11.3 12.9 0.00 0.00 0.00 76 1012.7
20260506034439 13 182 11.3 12.9 0.00 0.00 0.00 76 1013.0
20260506033938 13 184 11.3 12.9 0.00 0.00 0.00 76 1012.9
20260506033437 13 185 12.9 12.9 0.00 0.00 0.00 76 1012.9
20260506032939 13 184 11.3 12.9 0.00 0.00 0.00 76 1012.9
20260506032437 13 184 11.3 12.9 0.00 0.00 0.00 77 1013.1
20260506031939 13 183 11.3 12.9 0.00 0.00 0.00 77 1012.8
20260506031437 13 184 11.3 12.9 0.00 0.00 0.00 76 1012.8
20260506030939 13 184 12.9 12.9 0.00 0.00 0.00 76 1012.9
20260506030438 13 184 11.3 12.9 0.00 0.00 0.00 76 1012.6
20260506025939 13 184 11.3 12.9 0.00 0.00 0.00 75 1012.8
20260506025438 13 185 11.3 12.9 0.00 0.00 0.00 75 1012.9
20260506024938 13 185 11.3 12.9 0.00 0.00 0.00 74 1012.7
20260506024438 13 183 11.3 12.9 0.00 0.00 0.00 74 1012.8
20260506023940 13 185 11.3 12.9 0.00 0.00 0.00 74 1012.5
20260506023437 13 185 12.9 12.9 0.00 0.00 0.00 73 1012.6
20260506022938 13 185 11.3 12.9 0.00 0.00 0.00 73 1012.8
20260506022439 13 184 11.3 12.9 0.00 0.00 0.00 72 1012.7
20260506021938 13 184 11.3 12.9 0.00 0.00 0.00 72 1012.5
20260506021437 13 184 11.3 12.9 0.00 0.00 0.00 72 1012.3
20260506020938 14 182 11.3 12.9 0.00 0.00 0.00 72 1012.5
20260506020433 14 183 12.9 12.9 0.00 0.00 0.00 72 1012.4
20260506015935 14 184 11.3 12.9 0.00 0.00 0.00 72 1012.5
20260506015433 14 184 11.3 12.9 0.00 0.00 0.00 71 1012.4
20260506014934 14 182 11.3 12.9 0.00 0.00 0.00 71 1012.3
20260506014435 14 182 11.3 12.9 0.00 0.00 0.00 71 1012.3
20260506013935 14 184 11.3 12.9 0.00 0.00 0.00 70 1012.2
20260506013433 14 184 11.3 12.9 0.00 0.00 0.00 70 1012.1
20260506012934 14 184 11.3 12.9 0.00 0.00 0.00 70 1012.1
20260506012434 14 185 11.3 12.9 0.00 0.00 0.00 69 1012.1
20260506011935 15 185 11.3 12.9 0.00 0.00 0.00 69 1012.2
20260506011433 15 186 12.9 12.9 0.00 0.00 0.00 68 1012.0
20260506010934 15 183 11.3 12.9 0.00 0.00 0.00 69 1012.1
20260506010435 15 183 11.3 12.9 0.00 0.00 0.00 68 1012.0
20260506005935 15 184 11.3 12.9 0.00 0.00 0.00 68 1012.1
20260506005434 15 185 11.3 12.9 0.00 0.00 0.00 68 1012.2
20260506004937 15 186 11.3 12.9 0.00 0.00 0.00 68 1012.0
20260506004433 15 184 11.3 12.9 0.00 0.00 0.00 67 1011.8
20260506003935 15 184 11.3 12.9 0.00 0.00 0.00 67 1012.0
20260506003433 15 185 11.3 12.9 0.00 0.00 0.00 67 1011.9
20260506002934 15 184 11.3 12.9 0.00 0.00 0.00 67 1012.0
20260506002435 15 185 12.9 12.9 0.00 0.00 0.00 67 1012.0
20260506001935 15 185 12.9 14.5 0.00 0.00 0.00 67 1012.0
20260506001433 15 184 12.9 14.5 0.00 0.00 0.00 66 1012.1
20260506000934 15 183 9.7 14.5 0.00 0.00 0.00 66 1012.0
20260506000434 15 184 12.9 12.9 0.00 0.00 0.00 66 1012.0
20260505235936 15 184 11.3 14.5 0.00 0.00 0.00 66 1011.8
20260505235433 15 185 12.9 14.5 0.00 0.00 0.00 66 1012.0
20260505234934 15 183 11.3 12.9 0.00 0.00 0.00 66 1011.9
20260505234435 15 184 11.3 12.9 0.00 0.00 0.00 65 1011.8
20260505233934 15 183 11.3 12.9 0.00 0.00 0.00 65 1012.0
20260505233433 15 183 11.3 12.9 0.00 0.00 0.00 65 1012.2
20260505232934 16 184 12.9 12.9 0.00 0.00 0.00 65 1012.0
20260505232433 16 183 11.3 12.9 0.00 0.00 0.00 64 1012.0
20260505231935 16 185 11.3 12.9 0.00 0.00 0.00 64 1011.9
20260505231433 16 184 12.9 12.9 0.00 0.00 0.00 64 1011.9
20260505230935 16 183 12.9 12.9 0.00 0.00 0.00 63 1012.1
20260505230434 16 184 11.3 12.9 0.00 0.00 0.00 63 1012.1
20260505225934 16 184 11.3 12.9 0.00 0.00 0.00 63 1011.8
20260505225434 16 184 11.3 12.9 0.00 0.00 0.00 62 1012.0
20260505224934 17 184 11.3 12.9 0.00 0.00 0.00 62 1012.1
20260505224434 17 186 12.9 12.9 0.00 0.00 0.00 62 1011.9
20260505223941 17 184 11.3 12.9 0.00 0.00 0.00 60 1012.0
20260505223433 17 184 11.3 12.9 0.00 0.00 0.00 60 1012.0
20260505222934 17 186 11.3 12.9 0.00 0.00 0.00 60 1012.0
20260505222435 17 186 11.3 12.9 0.00 0.00 0.00 59 1012.2
20260505221935 17 184 12.9 12.9 0.00 0.00 0.00 59 1012.3
20260505221433 18 187 11.3 14.5 0.00 0.00 0.00 58 1012.1
20260505220943 18 183 12.9 14.5 0.00 0.00 0.00 58 1012.3
20260505220434 18 185 11.3 12.9 0.00 0.00 0.00 57 1012.0
20260505215936 18 183 11.3 12.9 0.00 0.00 0.00 57 1012.1
20260505215433 18 183 12.9 12.9 0.00 0.00 0.00 56 1012.2
20260505214935 18 184 12.9 12.9 0.00 0.00 0.00 56 1012.1
20260505214434 18 182 11.3 12.9 0.00 0.00 0.00 55 1012.2
20260505213934 18 182 11.3 12.9 0.00 0.00 0.00 55 1012.1
20260505213433 18 183 11.3 12.9 0.00 0.00 0.00 54 1012.0
20260505212934 19 183 12.9 12.9 0.00 0.00 0.00 53 1012.0
20260505212434 19 183 11.3 14.5 0.00 0.00 0.00 53 1011.9
20260505211936 19 183 11.3 14.5 0.00 0.00 0.00 52 1011.8
20260505211433 20 183 9.7 12.9 0.00 0.00 0.00 52 1011.8
20260505210935 20 182 11.3 16.1 0.00 0.00 0.00 51 1011.7
20260505210435 20 183 11.3 16.1 0.00 0.00 0.00 50 1011.5
20260505205934 20 182 9.7 14.5 0.00 0.00 0.00 50 1011.7
20260505205433 20 182 11.3 14.5 0.00 0.00 0.00 49 1011.4
20260505204935 20 183 9.7 14.5 0.00 0.00 0.00 48 1011.5
20260505204433 20 184 9.7 14.5 0.00 0.00 0.00 48 1011.3
20260505203936 20 180 9.7 14.5 0.00 0.00 0.00 47 1011.4
20260505203433 20 183 11.3 14.5 0.00 0.00 0.00 47 1011.4
20260505202934 20 185 11.3 14.5 0.00 0.00 0.00 47 1011.3
20260505202435 19 183 9.7 14.5 0.00 0.00 0.00 48 1011.4
20260505201934 17 184 11.3 17.7 0.00 0.00 0.00 57 1011.4
20260505201434 17 186 12.9 17.7 0.00 0.00 0.00 60 1011.0
20260505200935 17 183 11.3 12.9 0.00 0.00 0.00 61 1010.8
20260505200433 17 185 12.9 12.9 0.00 0.00 0.00 61 1010.7
20260505195936 17 185 12.9 14.5 0.00 0.00 0.00 61 1010.8
20260505195434 17 185 11.3 14.5 0.00 0.00 0.00 60 1010.8
20260505194935 17 185 12.9 14.5 0.00 0.00 0.00 60 1010.7
20260505194434 17 186 11.3 12.9 0.00 0.00 0.00 60 1010.6
20260505193935 18 184 11.3 14.5 0.00 0.00 0.00 58 1010.7
20260505193433 18 184 11.3 14.5 0.00 0.00 0.00 59 1010.6
20260505192935 18 186 12.9 12.9 0.00 0.00 0.00 59 1010.6
20260505192434 18 182 11.3 12.9 0.00 0.00 0.00 57 1010.5
20260505191935 18 183 11.3 12.9 0.00 0.00 0.00 56 1010.6
20260505191433 18 185 11.3 12.9 0.00 0.00 0.00 54 1010.5
20260505190934 18 183 11.3 12.9 0.00 0.00 0.00 53 1010.4
20260505190433 19 183 11.3 12.9 0.00 0.00 0.00 53 1010.3
20260505185936 19 183 11.3 12.9 0.00 0.00 0.00 54 1010.5
20260505185434 19 184 11.3 11.3 0.00 0.00 0.00 52 1010.5
20260505184934 19 238 0.0 1.6 0.00 0.00 0.00 50 1010.3
20260505184435 20 233 0.0 1.6 0.00 0.00 0.00 50 1010.3
20260505183935 20 241 0.0 1.6 0.00 0.00 0.00 50 1010.2
20260505183434 20 224 0.0 1.6 0.00 0.00 0.00 49 1010.3
20260505182936 20 205 0.0 1.6 0.00 0.00 0.00 49 1010.2
20260505182437 21 255 0.0 1.6 0.00 0.00 0.00 48 1010.2
20260505181939 21 224 0.0 1.6 0.00 0.00 0.00 48 1009.8
20260505181437 21 246 0.0 1.6 0.00 0.00 0.00 46 1010.1
20260505180938 21 221 0.0 1.6 0.00 0.00 0.00 46 1010.2
20260505180438 21 246 0.0 1.6 0.00 0.00 0.00 45 1010.0
20260505175938 22 224 0.0 1.6 0.00 0.00 0.00 45 1009.8
20260505175438 22 246 0.0 1.6 0.00 0.00 0.00 45 1009.8
20260505174938 22 230 0.0 1.6 0.00 0.00 0.00 42 1009.8
20260505174440 22 230 0.0 1.6 0.00 0.00 0.00 42 1009.7
20260505173940 22 224 0.0 1.6 0.00 0.00 0.00 40 1009.7
20260505173441 23 224 0.0 1.6 0.00 0.00 0.00 40 1009.9
20260505172937 23 225 0.0 1.6 0.00 0.00 0.00 39 1009.6
20260505172440 23 224 0.0 1.6 0.00 0.00 0.00 38 1009.7
20260505171938 23 242 0.0 0.0 0.00 0.00 0.00 37 1009.6
20260505171438 23 309 0.0 0.0 0.00 0.00 0.00 37 1009.7
20260505170937 24 315 0.0 0.0 0.00 0.00 0.00 37 1009.9
20260505170437 24 315 0.0 0.0 0.00 0.00 0.00 37 1009.8
20260505165941 25 315 0.0 0.0 0.00 0.00 0.00 36 1009.7
20260505165439 25 230 0.0 0.0 0.00 0.00 0.00 35 1009.8
20260505164937 25 224 0.0 0.0 0.00 0.00 0.00 34 1009.8
20260505164439 25 224 0.0 0.0 0.00 0.00 0.00 33 1009.8
20260505163939 26 242 0.0 1.6 0.00 0.00 0.00 33 1009.8
20260505163439 26 224 0.0 1.6 0.00 0.00 0.00 32 1009.8
20260505162938 26 332 0.0 3.2 0.00 0.00 0.00 32 1009.9
20260505162440 26 315 0.0 3.2 0.00 0.00 0.00 33 1010.0
20260505161939 26 322 0.0 3.2 0.00 0.00 0.00 32 1009.9
20260505161438 26 322 0.0 3.2 0.00 0.00 0.00 32 1009.8
20260505160937 26 205 0.0 3.2 0.00 0.00 0.00 32 1009.8
20260505160438 26 220 0.0 3.2 0.00 0.00 0.00 32 1009.8
20260505152934 26 315 0.0 1.6 0.00 0.00 0.00 31 1010.1
20260505152436 26 230 0.0 1.6 0.00 0.00 0.00 30 1010.3
20260505151934 27 216 0.0 3.2 0.00 0.00 0.00 33 1010.2
20260505151434 27 315 0.0 3.2 0.00 0.00 0.00 30 1010.3
20260505150934 27 212 0.0 3.2 0.00 0.00 0.00 32 1010.2
20260505150435 27 209 0.0 3.2 0.00 0.00 0.00 31 1010.3
20260505140434 27 179 1.6 1.6 0.00 0.00 0.00 31 1010.9
20260505124934 29 224 0.0 3.2 0.00 0.00 0.00 24 1012.0
20260505124436 30 190 1.6 3.2 0.00 0.00 0.00 26 1011.9
20260505123934 30 183 0.0 3.2 0.00 0.00 0.00 23 1012.1
20260505123435 30 158 0.0 3.2 0.00 0.00 0.00 23 1012.1
20260505122935 30 38 0.0 3.2 0.00 0.00 0.00 24 1012.2
20260505122435 29 130 0.0 3.2 0.00 0.00 0.00 24 1012.2
20260505121935 29 341 0.0 4.8 0.00 0.00 0.00 26 1012.2
20260505121434 29 212 0.0 6.4 0.00 0.00 0.00 26 1012.2
20260505120935 28 242 0.0 6.4 0.00 0.00 0.00 27 1012.4
20260505120434 28 212 3.2 4.8 0.00 0.00 0.00 27 1012.6
20260505115936 28 189 0.0 3.2 0.00 0.00 0.00 29 1012.4
20260505115434 28 174 0.0 3.2 0.00 0.00 0.00 32 1012.6
20260505114935 28 260 0.0 3.2 0.00 0.00 0.00 30 1012.4
20260505114435 28 186 0.0 4.8 0.00 0.00 0.00 32 1012.6
20260505113935 27 210 1.6 4.8 0.00 0.00 0.00 32 1012.5
20260505113433 27 19 0.0 3.2 0.00 0.00 0.00 31 1012.6
20260505112935 27 44 1.6 3.2 0.00 0.00 0.00 32 1012.6
20260505112434 27 343 0.0 3.2 0.00 0.00 0.00 32 1012.6
20260505111936 26 333 0.0 3.2 0.00 0.00 0.00 31 1012.6
20260505111433 26 243 0.0 3.2 0.00 0.00 0.00 34 1012.7
20260505110935 26 297 0.0 3.2 0.00 0.00 0.00 34 1012.8
20260505110435 26 333 0.0 3.2 0.00 0.00 0.00 34 1012.8
20260505101935 25 359 3.2 3.2 0.00 0.00 0.00 33 1013.2
20260505101434 25 196 0.0 3.2 0.00 0.00 0.00 35 1013.3
20260505100934 25 197 1.6 4.8 0.00 0.00 0.00 35 1013.3
20260505100433 25 197 0.0 4.8 0.00 0.00 0.00 37 1013.5
20260505095935 25 6 0.0 3.2 0.00 0.00 0.00 43 1013.5
20260505095434 25 218 0.0 3.2 0.00 0.00 0.00 44 1013.7
20260505094935 25 343 0.0 3.2 0.00 0.00 0.00 42 1013.4